| time (UTC) | temp F | wind direction | speed knots | gust knots | rain 1hr in | rain 24hr in | rain mn in | humidity % | barometer mb |
| 20260506203705 | 52 | 0.0 | 0.0 | 0.00 | 0.00 | 0.00 | 98 | 1008.7 | |
| 20260506203204 | 53 | 0.0 | 0.0 | 0.00 | 0.00 | 0.00 | 98 | 1008.7 | |
| 20260506202706 | 53 | 0.0 | 0.0 | 0.00 | 0.00 | 0.00 | 98 | 1008.7 | |
| 20260506202204 | 53 | 0.0 | 0.0 | 0.00 | 0.00 | 0.00 | 97 | 1008.5 | |
| 20260506201707 | 53 | 0.0 | 0.0 | 0.00 | 0.00 | 0.00 | 97 | 1008.5 | |
| 20260506201205 | 53 | 0.0 | 0.0 | 0.00 | 0.00 | 0.00 | 97 | 1008.5 | |
| 20260506200705 | 53 | 0.0 | 0.0 | 0.00 | 0.00 | 0.00 | 97 | 1008.5 | |
| 20260506200204 | 53 | 0.0 | 0.0 | 0.00 | 0.00 | 0.00 | 97 | 1008.5 | |
| 20260506195704 | 53 | 0.0 | 0.0 | 0.00 | 0.00 | 0.00 | 97 | 1008.5 | |
| 20260506195206 | 53 | 0.0 | 0.0 | 0.00 | 0.00 | 0.00 | 96 | 1008.0 | |
| 20260506194204 | 53 | 0.0 | 0.0 | 0.00 | 0.00 | 0.00 | 96 | 1008.0 | |
| 20260506193705 | 53 | 0.0 | 0.0 | 0.00 | 0.00 | 0.00 | 96 | 1008.0 | |
| 20260506193205 | 53 | 0.0 | 0.0 | 0.00 | 0.00 | 0.00 | 96 | 1007.9 | |
| 20260506192705 | 53 | 0.0 | 0.0 | 0.00 | 0.00 | 0.00 | 96 | 1007.9 | |
| 20260506192204 | 54 | 0.0 | 0.0 | 0.00 | 0.00 | 0.00 | 97 | 1007.8 | |
| 20260506191705 | 54 | 0.0 | 0.0 | 0.00 | 0.00 | 0.00 | 97 | 1007.8 | |
| 20260506191205 | 54 | 0.0 | 0.0 | 0.00 | 0.00 | 0.00 | 97 | 1007.6 | |
| 20260506190704 | 54 | 0.0 | 0.0 | 0.00 | 0.00 | 0.00 | 97 | 1007.6 | |
| 20260506185705 | 54 | 0.0 | 0.0 | 0.00 | 0.00 | 0.00 | 98 | 1007.4 | |
| 20260506185205 | 54 | 0.0 | 0.0 | 0.00 | 0.00 | 0.00 | 99 | 1007.3 | |
| 20260506184705 | 54 | 0.0 | 0.0 | 0.00 | 0.00 | 0.00 | 99 | 1007.3 | |
| 20260506184204 | 54 | 0.0 | 0.0 | 0.00 | 0.00 | 0.00 | 99 | 1007.1 | |
| 20260506183705 | 54 | 0.0 | 0.0 | 0.00 | 0.00 | 0.00 | 99 | 1007.1 | |
| 20260506183205 | 54 | 0.0 | 0.0 | 0.00 | 0.00 | 0.00 | 99 | 1007.0 | |
| 20260506182704 | 54 | 0.0 | 0.0 | 0.00 | 0.00 | 0.00 | 99 | 1007.0 | |
| 20260506182205 | 54 | 0.0 | 0.0 | 0.00 | 0.00 | 0.00 | 99 | 1006.9 | |
| 20260506181705 | 54 | 0.0 | 0.0 | 0.00 | 0.00 | 0.00 | 99 | 1006.9 | |
| 20260506181206 | 54 | 0.0 | 0.0 | 0.00 | 0.00 | 0.00 | 99 | 1006.9 | |
| 20260506180705 | 54 | 0.0 | 0.0 | 0.00 | 0.00 | 0.00 | 99 | 1006.9 | |
| 20260506180205 | 54 | 0.0 | 0.0 | 0.00 | 0.00 | 0.00 | 99 | 1006.8 | |
| 20260506175704 | 54 | 0.0 | 0.0 | 0.00 | 0.00 | 0.00 | 99 | 1006.8 | |
| 20260506175204 | 54 | 0.0 | 0.0 | 0.00 | 0.00 | 0.00 | 98 | 1006.7 | |
| 20260506174705 | 54 | 0.0 | 0.0 | 0.00 | 0.00 | 0.00 | 98 | 1006.7 | |
| 20260506174206 | 55 | 0.0 | 0.0 | 0.00 | 0.00 | 0.00 | 98 | 1006.7 | |
| 20260506173704 | 55 | 0.0 | 0.0 | 0.00 | 0.00 | 0.00 | 98 | 1006.7 | |
| 20260506173205 | 55 | 0.0 | 0.0 | 0.00 | 0.00 | 0.00 | 98 | 1006.6 | |
| 20260506172204 | 55 | 0.0 | 0.0 | 0.00 | 0.00 | 0.00 | 98 | 1006.6 | |
| 20260506171706 | 55 | 0.0 | 0.0 | 0.00 | 0.00 | 0.00 | 98 | 1006.6 | |
| 20260506171204 | 55 | 0.0 | 0.0 | 0.00 | 0.00 | 0.00 | 98 | 1006.6 | |
| 20260506170206 | 55 | 0.0 | 0.0 | 0.00 | 0.00 | 0.00 | 98 | 1006.6 | |
| 20260506165704 | 55 | 0.0 | 0.0 | 0.00 | 0.00 | 0.00 | 98 | 1006.6 | |
| 20260506165205 | 55 | 0.0 | 0.0 | 0.00 | 0.00 | 0.00 | 98 | 1006.6 | |
| 20260506164705 | 55 | 0.0 | 0.0 | 0.00 | 0.00 | 0.00 | 98 | 1006.6 | |
| 20260506164204 | 55 | 0.0 | 0.0 | 0.00 | 0.00 | 0.00 | 98 | 1006.6 | |
| 20260506163707 | 55 | 0.0 | 0.0 | 0.00 | 0.00 | 0.00 | 98 | 1006.6 | |
| 20260506163205 | 54 | 0.0 | 0.0 | 0.00 | 0.00 | 0.00 | 98 | 1006.6 | |
| 20260506162704 | 54 | 0.0 | 0.0 | 0.00 | 0.00 | 0.00 | 98 | 1006.6 | |
| 20260506161208 | 55 | 0.0 | 0.0 | 0.00 | 0.00 | 0.00 | 98 | 1006.6 | |
| 20260506160705 | 55 | 0.0 | 0.0 | 0.00 | 0.00 | 0.00 | 98 | 1006.6 | |
| 20260506160204 | 55 | 0.0 | 0.0 | 0.00 | 0.00 | 0.00 | 98 | 1006.5 | |
| 20260506155705 | 55 | 0.0 | 0.0 | 0.00 | 0.00 | 0.00 | 98 | 1006.5 | |
| 20260506154704 | 55 | 0.0 | 0.0 | 0.00 | 0.00 | 0.00 | 98 | 1006.2 | |
| 20260506154205 | 55 | 0.0 | 0.0 | 0.00 | 0.00 | 0.00 | 98 | 1006.2 | |
| 20260506153705 | 55 | 0.0 | 0.0 | 0.00 | 0.00 | 0.00 | 98 | 1006.2 | |
| 20260506153206 | 55 | 0.0 | 0.0 | 0.00 | 0.00 | 0.00 | 98 | 1006.2 | |
| 20260506152705 | 55 | 0.0 | 0.0 | 0.00 | 0.00 | 0.00 | 98 | 1006.2 | |
| 20260506152205 | 55 | 0.0 | 0.0 | 0.00 | 0.00 | 0.00 | 97 | 1006.2 | |
| 20260506151705 | 55 | 0.0 | 0.0 | 0.00 | 0.00 | 0.00 | 97 | 1006.2 | |
| 20260506150706 | 55 | 0.0 | 0.0 | 0.00 | 0.00 | 0.00 | 97 | 1006.2 | |
| 20260506150205 | 55 | 0.0 | 0.0 | 0.00 | 0.00 | 0.00 | 97 | 1006.2 | |
| 20260506145704 | 55 | 0.0 | 0.0 | 0.00 | 0.00 | 0.00 | 97 | 1006.2 | |
| 20260506145207 | 54 | 0.0 | 0.0 | 0.00 | 0.00 | 0.00 | 95 | 1006.3 | |
| 20260506144705 | 54 | 0.0 | 0.0 | 0.00 | 0.00 | 0.00 | 95 | 1006.3 | |
| 20260506144206 | 54 | 0.0 | 0.0 | 0.00 | 0.00 | 0.00 | 93 | 1006.5 | |
| 20260506143204 | 56 | 0.0 | 0.0 | 0.00 | 0.00 | 0.00 | 88 | 1006.4 | |
| 20260506142705 | 56 | 0.0 | 0.0 | 0.00 | 0.00 | 0.00 | 88 | 1006.4 | |
| 20260506142205 | 56 | 0.0 | 0.0 | 0.00 | 0.00 | 0.00 | 88 | 1006.4 | |
| 20260506141705 | 56 | 0.0 | 0.0 | 0.00 | 0.00 | 0.00 | 88 | 1006.4 | |
| 20260506141205 | 58 | 0.0 | 0.0 | 0.00 | 0.00 | 0.00 | 84 | 1005.8 | |
| 20260506140706 | 58 | 0.0 | 0.0 | 0.00 | 0.00 | 0.00 | 84 | 1005.8 | |
| 20260506140205 | 60 | 0.0 | 0.0 | 0.00 | 0.00 | 0.00 | 83 | 1005.4 | |
| 20260506135704 | 60 | 0.0 | 0.0 | 0.00 | 0.00 | 0.00 | 83 | 1005.4 | |
| 20260506135204 | 61 | 0.0 | 0.0 | 0.00 | 0.00 | 0.00 | 80 | 1005.2 | |
| 20260506134705 | 61 | 0.0 | 0.0 | 0.00 | 0.00 | 0.00 | 80 | 1005.2 | |
| 20260506134206 | 61 | 0.0 | 0.0 | 0.00 | 0.00 | 0.00 | 78 | 1005.0 | |
| 20260506133206 | 64 | 0.0 | 0.0 | 0.00 | 0.00 | 0.00 | 73 | 1004.7 | |
| 20260506132705 | 64 | 0.0 | 0.0 | 0.00 | 0.00 | 0.00 | 73 | 1004.7 | |
| 20260506131704 | 64 | 0.0 | 0.0 | 0.00 | 0.00 | 0.00 | 73 | 1004.7 | |
| 20260506131204 | 64 | 0.0 | 0.0 | 0.00 | 0.00 | 0.00 | 75 | 1004.6 | |
| 20260506130707 | 64 | 0.0 | 0.0 | 0.00 | 0.00 | 0.00 | 75 | 1004.6 | |
| 20260506130205 | 64 | 0.0 | 0.0 | 0.00 | 0.00 | 0.00 | 73 | 1004.4 | |
| 20260506125705 | 64 | 0.0 | 0.0 | 0.00 | 0.00 | 0.00 | 73 | 1004.4 | |
| 20260506125204 | 64 | 0.0 | 0.0 | 0.00 | 0.00 | 0.00 | 65 | 1004.4 | |
| 20260506124705 | 64 | 0.0 | 0.0 | 0.00 | 0.00 | 0.00 | 65 | 1004.4 | |
| 20260506124205 | 64 | 0.0 | 0.0 | 0.00 | 0.00 | 0.00 | 62 | 1004.5 | |
| 20260506123705 | 64 | 0.0 | 0.0 | 0.00 | 0.00 | 0.00 | 62 | 1004.5 | |
| 20260506123206 | 64 | 0.0 | 0.0 | 0.00 | 0.00 | 0.00 | 62 | 1004.5 | |
| 20260506122204 | 64 | 0.0 | 0.0 | 0.00 | 0.00 | 0.00 | 62 | 1004.5 | |
| 20260506121705 | 64 | 0.0 | 0.0 | 0.00 | 0.00 | 0.00 | 62 | 1004.5 | |
| 20260506121205 | 64 | 0.0 | 0.0 | 0.00 | 0.00 | 0.00 | 63 | 1004.6 | |
| 20260506120707 | 64 | 0.0 | 0.0 | 0.00 | 0.00 | 0.00 | 63 | 1004.6 | |
| 20260506120204 | 64 | 0.0 | 0.0 | 0.00 | 0.00 | 0.00 | 65 | 1004.7 | |
| 20260506115704 | 64 | 0.0 | 0.0 | 0.00 | 0.00 | 0.00 | 65 | 1004.7 | |
| 20260506115205 | 64 | 0.0 | 0.0 | 0.00 | 0.00 | 0.00 | 65 | 1004.7 | |
| 20260506114704 | 64 | 0.0 | 0.0 | 0.00 | 0.00 | 0.00 | 65 | 1004.7 | |
| 20260506114205 | 64 | 0.0 | 0.0 | 0.00 | 0.00 | 0.00 | 64 | 1004.7 | |
| 20260506113704 | 64 | 0.0 | 0.0 | 0.00 | 0.00 | 0.00 | 64 | 1004.7 | |
| 20260506113205 | 64 | 0.0 | 0.0 | 0.00 | 0.00 | 0.00 | 65 | 1004.9 | |
| 20260506112704 | 64 | 0.0 | 0.0 | 0.00 | 0.00 | 0.00 | 65 | 1004.9 | |
| 20260506111705 | 64 | 0.0 | 0.0 | 0.00 | 0.00 | 0.00 | 65 | 1004.9 | |
| 20260506111206 | 64 | 0.0 | 0.0 | 0.00 | 0.00 | 0.00 | 63 | 1005.1 | |
| 20260506110704 | 64 | 0.0 | 0.0 | 0.00 | 0.00 | 0.00 | 63 | 1005.1 | |
| 20260506110207 | 64 | 0.0 | 0.0 | 0.00 | 0.00 | 0.00 | 63 | 1005.1 | |
| 20260506105704 | 64 | 0.0 | 0.0 | 0.00 | 0.00 | 0.00 | 63 | 1005.1 | |
| 20260506105204 | 63 | 0.0 | 0.0 | 0.00 | 0.00 | 0.00 | 63 | 1005.3 | |
| 20260506104705 | 63 | 0.0 | 0.0 | 0.00 | 0.00 | 0.00 | 63 | 1005.3 | |
| 20260506103704 | 63 | 0.0 | 0.0 | 0.00 | 0.00 | 0.00 | 63 | 1005.3 | |
| 20260506103205 | 64 | 0.0 | 0.0 | 0.00 | 0.00 | 0.00 | 67 | 1005.4 | |
| 20260506102704 | 64 | 0.0 | 0.0 | 0.00 | 0.00 | 0.00 | 67 | 1005.4 | |
| 20260506102206 | 63 | 0.0 | 0.0 | 0.00 | 0.00 | 0.00 | 69 | 1005.4 | |
| 20260506101705 | 63 | 0.0 | 0.0 | 0.00 | 0.00 | 0.00 | 69 | 1005.4 | |
| 20260506101205 | 63 | 0.0 | 0.0 | 0.00 | 0.00 | 0.00 | 71 | 1005.4 | |
| 20260506100705 | 63 | 0.0 | 0.0 | 0.00 | 0.00 | 0.00 | 71 | 1005.4 | |
| 20260506095706 | 63 | 0.0 | 0.0 | 0.00 | 0.00 | 0.00 | 74 | 1005.5 | |
| 20260506095204 | 62 | 0.0 | 0.0 | 0.00 | 0.00 | 0.00 | 72 | 1005.6 | |
| 20260506094205 | 62 | 0.0 | 0.0 | 0.00 | 0.00 | 0.00 | 75 | 1005.6 | |
| 20260506093704 | 62 | 0.0 | 0.0 | 0.00 | 0.00 | 0.00 | 75 | 1005.6 | |
| 20260506092706 | 61 | 0.0 | 0.0 | 0.00 | 0.00 | 0.00 | 77 | 1005.6 | |
| 20260506091705 | 62 | 0.0 | 0.0 | 0.00 | 0.00 | 0.00 | 77 | 1005.4 | |
| 20260506091204 | 62 | 0.0 | 0.0 | 0.00 | 0.00 | 0.00 | 77 | 1005.5 | |
| 20260506090705 | 62 | 0.0 | 0.0 | 0.00 | 0.00 | 0.00 | 77 | 1005.5 | |
| 20260506090206 | 61 | 0.0 | 0.0 | 0.00 | 0.00 | 0.00 | 78 | 1005.7 | |
| 20260506085205 | 61 | 0.0 | 0.0 | 0.00 | 0.00 | 0.00 | 77 | 1005.7 | |
| 20260506084706 | 61 | 0.0 | 0.0 | 0.00 | 0.00 | 0.00 | 77 | 1005.7 | |
| 20260506084204 | 61 | 0.0 | 0.0 | 0.00 | 0.00 | 0.00 | 80 | 1005.6 | |
| 20260506083705 | 61 | 0.0 | 0.0 | 0.00 | 0.00 | 0.00 | 80 | 1005.6 | |
| 20260506083205 | 59 | 0.0 | 0.0 | 0.00 | 0.00 | 0.00 | 83 | 1005.8 | |
| 20260506082705 | 59 | 0.0 | 0.0 | 0.00 | 0.00 | 0.00 | 83 | 1005.8 | |
| 20260506082206 | 58 | 0.0 | 0.0 | 0.00 | 0.00 | 0.00 | 88 | 1006.0 | |
| 20260506081704 | 58 | 0.0 | 0.0 | 0.00 | 0.00 | 0.00 | 88 | 1006.0 | |
| 20260506081206 | 58 | 0.0 | 0.0 | 0.00 | 0.00 | 0.00 | 89 | 1006.0 | |
| 20260506080705 | 58 | 0.0 | 0.0 | 0.00 | 0.00 | 0.00 | 89 | 1006.0 | |
| 20260506080204 | 57 | 0.0 | 0.0 | 0.00 | 0.00 | 0.00 | 93 | 1006.0 | |
| 20260506073204 | 54 | 0.0 | 0.0 | 0.00 | 0.00 | 0.00 | 100 | 1006.0 | |
| 20260506072705 | 54 | 0.0 | 0.0 | 0.00 | 0.00 | 0.00 | 100 | 1006.0 | |
| 20260506071705 | 53 | 0.0 | 0.0 | 0.00 | 0.00 | 0.00 | 100 | 1006.0 | |
| 20260506071205 | 53 | 0.0 | 0.0 | 0.00 | 0.00 | 0.00 | 100 | 1006.0 | |
| 20260506070704 | 53 | 0.0 | 0.0 | 0.00 | 0.00 | 0.00 | 100 | 1006.0 | |
| 20260506070207 | 53 | 0.0 | 0.0 | 0.00 | 0.00 | 0.00 | 100 | 1006.0 | |
| 20260506062204 | 51 | 0.0 | 0.0 | 0.00 | 0.00 | 0.00 | 100 | 1006.3 | |
| 20260506061705 | 51 | 0.0 | 0.0 | 0.00 | 0.00 | 0.00 | 100 | 1006.3 | |
| 20260506061205 | 50 | 0.0 | 0.0 | 0.00 | 0.00 | 0.00 | 100 | 1006.3 | |
| 20260506060705 | 50 | 0.0 | 0.0 | 0.00 | 0.00 | 0.00 | 100 | 1006.3 | |
| 20260506060206 | 50 | 0.0 | 0.0 | 0.00 | 0.00 | 0.00 | 100 | 1006.3 | |
| 20260506051205 | 48 | 0.0 | 0.0 | 0.00 | 0.00 | 0.00 | 100 | 1006.6 | |
| 20260506050705 | 48 | 0.0 | 0.0 | 0.00 | 0.00 | 0.00 | 100 | 1006.6 | |
| 20260506050206 | 48 | 0.0 | 0.0 | 0.00 | 0.00 | 0.00 | 100 | 1006.6 | |
| 20260506044706 | 48 | 0.0 | 0.0 | 0.00 | 0.00 | 0.00 | 100 | 1006.5 | |
| 20260506044204 | 48 | 0.0 | 0.0 | 0.00 | 0.00 | 0.00 | 100 | 1006.5 | |
| 20260506043705 | 48 | 0.0 | 0.0 | 0.00 | 0.00 | 0.00 | 100 | 1006.5 | |
| 20260506043206 | 48 | 0.0 | 0.0 | 0.00 | 0.00 | 0.00 | 100 | 1006.5 | |
| 20260506042704 | 48 | 0.0 | 0.0 | 0.00 | 0.00 | 0.00 | 100 | 1006.5 | |
| 20260506042206 | 49 | 0.0 | 0.0 | 0.00 | 0.00 | 0.00 | 100 | 1006.7 | |
| 20260506041705 | 49 | 0.0 | 0.0 | 0.00 | 0.00 | 0.00 | 100 | 1006.7 | |
| 20260506041204 | 49 | 0.0 | 0.0 | 0.00 | 0.00 | 0.00 | 100 | 1006.7 | |
| 20260506040205 | 49 | 0.0 | 0.0 | 0.00 | 0.00 | 0.00 | 100 | 1006.8 | |
| 20260506035705 | 49 | 0.0 | 0.0 | 0.00 | 0.00 | 0.00 | 100 | 1006.8 | |
| 20260506035205 | 49 | 0.0 | 0.0 | 0.00 | 0.00 | 0.00 | 100 | 1006.8 | |
| 20260506034206 | 49 | 0.0 | 0.0 | 0.00 | 0.00 | 0.00 | 100 | 1006.7 | |
| 20260506033204 | 49 | 0.0 | 0.0 | 0.00 | 0.00 | 0.00 | 100 | 1006.7 | |
| 20260506032706 | 49 | 0.0 | 0.0 | 0.00 | 0.00 | 0.00 | 100 | 1006.7 | |
| 20260506032204 | 49 | 0.0 | 0.0 | 0.00 | 0.00 | 0.00 | 100 | 1006.7 | |
| 20260506031705 | 49 | 0.0 | 0.0 | 0.00 | 0.00 | 0.00 | 100 | 1006.7 | |
| 20260506031205 | 49 | 0.0 | 0.0 | 0.00 | 0.00 | 0.00 | 100 | 1006.7 | |
| 20260506030206 | 49 | 0.0 | 0.0 | 0.00 | 0.00 | 0.00 | 100 | 1006.7 | |
| 20260506025705 | 49 | 0.0 | 0.0 | 0.00 | 0.00 | 0.00 | 100 | 1006.7 | |
| 20260506025206 | 49 | 0.0 | 0.0 | 0.00 | 0.00 | 0.00 | 100 | 1006.9 | |
| 20260506024704 | 49 | 0.0 | 0.0 | 0.00 | 0.00 | 0.00 | 100 | 1006.9 | |
| 20260506024205 | 49 | 0.0 | 0.0 | 0.00 | 0.00 | 0.00 | 100 | 1007.1 | |
| 20260506023706 | 49 | 0.0 | 0.0 | 0.00 | 0.00 | 0.00 | 100 | 1007.1 | |
| 20260506023205 | 49 | 0.0 | 0.0 | 0.00 | 0.00 | 0.00 | 100 | 1007.2 | |
| 20260506022204 | 49 | 0.0 | 0.0 | 0.00 | 0.00 | 0.00 | 100 | 1007.2 | |
| 20260506021205 | 49 | 0.0 | 0.0 | 0.00 | 0.00 | 0.00 | 100 | 1007.3 | |
| 20260506020705 | 49 | 0.0 | 0.0 | 0.00 | 0.00 | 0.00 | 100 | 1007.3 | |
| 20260506020206 | 49 | 0.0 | 0.0 | 0.00 | 0.00 | 0.00 | 100 | 1007.3 | |
| 20260506015705 | 49 | 0.0 | 0.0 | 0.00 | 0.00 | 0.00 | 100 | 1007.3 | |
| 20260506015204 | 50 | 0.0 | 0.0 | 0.00 | 0.00 | 0.00 | 100 | 1007.2 | |
| 20260506014705 | 50 | 0.0 | 0.0 | 0.00 | 0.00 | 0.00 | 100 | 1007.2 | |
| 20260506014204 | 50 | 0.0 | 0.0 | 0.00 | 0.00 | 0.00 | 100 | 1007.2 | |
| 20260506013705 | 50 | 0.0 | 0.0 | 0.00 | 0.00 | 0.00 | 100 | 1007.2 | |
| 20260506012705 | 50 | 0.0 | 0.0 | 0.00 | 0.00 | 0.00 | 100 | 1007.1 | |
| 20260506012207 | 50 | 0.0 | 0.0 | 0.00 | 0.00 | 0.00 | 100 | 1007.1 | |
| 20260506011705 | 50 | 0.0 | 0.0 | 0.00 | 0.00 | 0.00 | 100 | 1007.1 | |
| 20260506011205 | 50 | 0.0 | 0.0 | 0.00 | 0.00 | 0.00 | 100 | 1007.1 | |
| 20260506010705 | 50 | 0.0 | 0.0 | 0.00 | 0.00 | 0.00 | 100 | 1007.1 | |
| 20260506010205 | 51 | 0.0 | 0.0 | 0.00 | 0.00 | 0.00 | 100 | 1007.1 | |
| 20260506005704 | 51 | 0.0 | 0.0 | 0.00 | 0.00 | 0.00 | 100 | 1007.1 | |
| 20260506004705 | 51 | 0.0 | 0.0 | 0.00 | 0.00 | 0.00 | 100 | 1007.3 | |
| 20260506004205 | 51 | 0.0 | 0.0 | 0.00 | 0.00 | 0.00 | 100 | 1007.3 | |
| 20260506003706 | 51 | 0.0 | 0.0 | 0.00 | 0.00 | 0.00 | 100 | 1007.3 | |
| 20260506003205 | 52 | 0.0 | 0.0 | 0.00 | 0.00 | 0.00 | 100 | 1007.4 | |
| 20260506002704 | 52 | 0.0 | 0.0 | 0.00 | 0.00 | 0.00 | 100 | 1007.4 | |
| 20260506001705 | 52 | 0.0 | 0.0 | 0.00 | 0.00 | 0.00 | 100 | 1007.7 | |
| 20260506001207 | 52 | 0.0 | 0.0 | 0.00 | 0.00 | 0.00 | 100 | 1007.7 | |
| 20260506000706 | 52 | 0.0 | 0.0 | 0.00 | 0.00 | 0.00 | 100 | 1007.7 | |
| 20260505235705 | 52 | 0.0 | 0.0 | 0.00 | 0.00 | 0.00 | 100 | 1007.7 | |
| 20260505235205 | 52 | 0.0 | 0.0 | 0.00 | 0.00 | 0.00 | 100 | 1007.8 | |
| 20260505234705 | 52 | 0.0 | 0.0 | 0.00 | 0.00 | 0.00 | 100 | 1007.8 | |
| 20260505233205 | 52 | 0.0 | 0.0 | 0.00 | 0.00 | 0.00 | 99 | 1007.7 | |
| 20260505232704 | 52 | 0.0 | 0.0 | 0.00 | 0.00 | 0.00 | 99 | 1007.7 | |
| 20260505232206 | 52 | 0.0 | 0.0 | 0.00 | 0.00 | 0.00 | 99 | 1007.7 | |
| 20260505231705 | 52 | 0.0 | 0.0 | 0.00 | 0.00 | 0.00 | 99 | 1007.7 | |
| 20260505231204 | 52 | 0.0 | 0.0 | 0.00 | 0.00 | 0.00 | 99 | 1007.8 | |
| 20260505230705 | 52 | 0.0 | 0.0 | 0.00 | 0.00 | 0.00 | 99 | 1007.8 | |
| 20260505230204 | 53 | 0.0 | 0.0 | 0.00 | 0.00 | 0.00 | 99 | 1007.8 | |
| 20260505225705 | 53 | 0.0 | 0.0 | 0.00 | 0.00 | 0.00 | 99 | 1007.8 | |
| 20260505225206 | 53 | 0.0 | 0.0 | 0.00 | 0.00 | 0.00 | 99 | 1007.7 | |
| 20260505224705 | 53 | 0.0 | 0.0 | 0.00 | 0.00 | 0.00 | 99 | 1007.7 | |
| 20260505224204 | 53 | 0.0 | 0.0 | 0.00 | 0.00 | 0.00 | 99 | 1007.6 | |
| 20260505223707 | 53 | 0.0 | 0.0 | 0.00 | 0.00 | 0.00 | 99 | 1007.6 | |
| 20260505223204 | 53 | 0.0 | 0.0 | 0.00 | 0.00 | 0.00 | 99 | 1007.5 | |
| 20260505222706 | 53 | 0.0 | 0.0 | 0.00 | 0.00 | 0.00 | 99 | 1007.5 | |
| 20260505222204 | 53 | 0.0 | 0.0 | 0.00 | 0.00 | 0.00 | 99 | 1007.5 | |
| 20260505221705 | 53 | 0.0 | 0.0 | 0.00 | 0.00 | 0.00 | 99 | 1007.5 | |
| 20260505221205 | 54 | 0.0 | 0.0 | 0.00 | 0.00 | 0.00 | 98 | 1007.7 | |
| 20260505220706 | 54 | 0.0 | 0.0 | 0.00 | 0.00 | 0.00 | 98 | 1007.7 | |
| 20260505215705 | 54 | 0.0 | 0.0 | 0.00 | 0.00 | 0.00 | 98 | 1007.7 | |
| 20260505215207 | 54 | 0.0 | 0.0 | 0.00 | 0.00 | 0.00 | 98 | 1007.7 | |
| 20260505214704 | 54 | 0.0 | 0.0 | 0.00 | 0.00 | 0.00 | 98 | 1007.7 | |
| 20260505214206 | 54 | 0.0 | 0.0 | 0.00 | 0.00 | 0.00 | 97 | 1007.7 | |
| 20260505213705 | 54 | 0.0 | 0.0 | 0.00 | 0.00 | 0.00 | 97 | 1007.7 | |
| 20260505213204 | 54 | 0.0 | 0.0 | 0.00 | 0.00 | 0.00 | 98 | 1007.7 | |
| 20260505212705 | 54 | 0.0 | 0.0 | 0.00 | 0.00 | 0.00 | 98 | 1007.7 | |
| 20260505211704 | 54 | 0.0 | 0.0 | 0.00 | 0.00 | 0.00 | 97 | 1007.8 | |
| 20260505211206 | 54 | 0.0 | 0.0 | 0.00 | 0.00 | 0.00 | 97 | 1007.7 | |
| 20260505210205 | 55 | 0.0 | 0.0 | 0.00 | 0.00 | 0.00 | 96 | 1007.6 | |
| 20260505205706 | 55 | 0.0 | 0.0 | 0.00 | 0.00 | 0.00 | 96 | 1007.6 | |
| 20260505204705 | 56 | 0.0 | 0.0 | 0.00 | 0.00 | 0.00 | 94 | 1007.4 |